Regional Weather Roundup
Issued by NWS

Home | Current Version | Previous Version | Graphics & Text | Print | Product List | Glossary Off
Versions: 1 2 3 4 5 6 7 8 9 10 11 12 13 14 15 16 17 18 19 20 21 22 23 24 25 26 27 28 29 30 31 32 33 34 35 36 37 38 39 40 41 42 43 44 45 46 47 48 49 50

000
ASUS43 KMPX 210110
RWRMN
WEATHER ROUNDUP FOR MINNESOTA
NATIONAL WEATHER SERVICE TWIN CITIES/CHANHASSEN MN
800 PM CDT WED SEP 20 2017


NOTE: "FAIR" INDICATES FEW OR NO CLOUDS BELOW 12,000 FEET WITH NO
SIGNIFICANT WEATHER AND/OR OBSTRUCTIONS TO VISIBILITY. N/A MEANS
CURRENT SKY AND/OR WEATHER CONDITIONS ARE NOT AVAILABLE.

MNZ060>063-068>070-210200-
   Twin Cities Metro

CITY           SKY/WX    TMP DP  RH WIND       PRES   REMARKS
TWIN CITIES    CLEAR     68  51  54 NW7       29.87R
ST PAUL        CLEAR     63  53  70 CALM      29.87R
CRYSTAL        CLEAR     62  49  62 CALM      29.86R
BLAINE         CLEAR     64  50  59 NW6       29.87R
LAKEVILLE      CLEAR     57  54  88 CALM      29.87S
EDEN PRAIRIE   CLEAR     66  50  56 NW5       29.86R
SOUTH ST PAUL  CLEAR     65  52  62 CALM      29.86R
LAKE ELMO      FAIR      59  54  82 CALM      29.87S
$$
MNZ001>005-007-008-013>017-022>024-027-028-210200-
   Northwest Minnesota

CITY           SKY/WX    TMP DP  RH WIND       PRES   REMARKS
BEMIDJI        CLEAR     56  43  61 S6        29.85R
HALLOCK        CLOUDY    57  45  62 S8        29.74R
ROSEAU           N/A     59  46  63 S7        29.77R
WARROAD        CLEAR     57  46  67 S6        29.78R
THIEF RVR FALL CLEAR     59  43  55 S7        29.81R
CROOKSTON      CLEAR     63  45  51 S9        29.80R
FOSSTON        CLEAR     54  45  71 S6        29.84R
DETROIT LAKES  CLEAR     59  46  63 S3        29.87R
MOORHEAD       PTCLDY    64  43  45 S7        29.83R
PARK RAPIDS    CLEAR     59  47  64 SE5       29.86R
MAHNOMEN       FAIR      57  45  65 S6        29.84R
$$
MNZ006-009>011-018-025>026-210200-
   North Central Minnesota

CITY           SKY/WX    TMP DP  RH WIND       PRES   REMARKS
BAUDETTE       CLEAR     57  43  59 S7        29.81R
FLAG ISLAND    CLEAR     61  50  67 S6        29.76R
INTL FALLS     CLEAR     51  44  77 CALM      29.84R
WASKISH        CLEAR     52  48  87 S3        29.84
BIG FORK       CLEAR     52  48  87 CALM      29.87R
LONGVILLE      CLEAR     50  48  93 CALM      29.87R
GRAND RAPIDS   CLEAR     51  50  96 S3        29.89R
CRANE LAKE     CLEAR     46  46 100 CALM      29.87R
ORR            CLEAR     52  45  76 CALM      29.84R
COOK           CLEAR     52  50  93 CALM      29.88R
WALKER         FAIR      53  49  87 CALM      29.87R
$$
MNZ012-019>021-037-210200-
   Northeast Minnesota

CITY           SKY/WX    TMP DP  RH WIND       PRES   REMARKS
DULUTH         CLEAR     58  48  69 W5        29.88R
ELY            CLEAR     55  50  82 CALM      29.88R
HIBBING        CLEAR     48  47  96 CALM      29.88R
EVELETH        CLEAR     53  50  90 CALM      29.90R
DULUTH HARBOR  CLEAR     64  55  72 W8        29.87R
SILVER BAY     CLEAR     55  52  88 CALM      29.85R
GRAND MARAIS     N/A     58  57  97 CALM      29.83R
G MARAIS ARPRT CLEAR     54  50  87 CALM      29.88R
$$
MNZ029>031-032-039>041-046>048-054>057-064-210200-
   West Central Minnesota

CITY           SKY/WX    TMP DP  RH WIND       PRES   REMARKS
FERGUS FALLS   CLEAR     61  45  55 SE7       29.86R
WHEATON        CLEAR     55  46  71 SE6       29.87R
MORRIS         CLEAR     59  48  67 S3        29.87R
ALEXANDRIA     CLEAR     58  47  66 SE6       29.89R
ELBOW LAKE     FAIR      56  49  74 S6        29.87R
WADENA         CLEAR     54  48  82 CALM      29.87R
GLENWOOD       CLEAR     61  46  59 SE5       29.89R
APPLETON       CLEAR     61  48  63 SE3       29.87R
BENSON         CLEAR     55  46  71 S3        29.89R
ORTONVILLE     CLEAR     59  48  67 NE5       29.86R
MADISON        CLEAR     63  54  72 CALM      29.87R
WILLMAR        FAIR      59  54  82 CALM      29.90R
$$
MNZ033>034-036-042>043-049>051-058-059-210200-
   Central Minnesota

CITY           SKY/WX    TMP DP  RH WIND       PRES   REMARKS
ST CLOUD       CLEAR     55  52  89 CALM      29.88R
SAUK CENTRE    FAIR      57  48  72 CALM      29.89R
PAYNESVILLE    CLEAR     56  53  89 CALM      29.89S
AITKIN         CLEAR     50  48  93 CALM      29.88R
PINE RIVER     CLEAR     50  46  87 CALM      29.91R
BRAINERD       CLEAR     53  49  86 CALM      29.89R
LONG PRAIRIE   FAIR      54  48  82 CALM      29.89R
LITTLE FALLS   CLEAR     54  46  76 CALM      29.89R
LITCHFIELD     CLEAR     61  52  72 CALM      29.90R
BUFFALO        CLEAR     60  49  67 CALM      29.89R
MAPLE LAKE     CLEAR     56  53  89 CALM      29.89R
HUTCHINSON     CLEAR     57  54  88 CALM      29.90R
$$
MNZ037-044-045-052-053-210200-
   East Central Minnesota

CITY           SKY/WX    TMP DP  RH WIND       PRES   REMARKS
PRINCETON      CLEAR     55  50  82 CALM      29.89R
MORA           CLEAR     54  46  76 CALM      29.90R
CAMBRIDGE      CLEAR     59  48  67 CALM      29.89R
RUSH CITY      PTCLDY    56  51  85 CALM      29.88R
MOOSE LAKE     CLEAR     52  50  93 CALM      29.86S
HINCKLEY       FAIR      55  54  94 CALM      29.88R
CLOQUET        CLEAR     54  46  76 W3        29.89R
MCGREGOR       CLEAR     55  48  76 W3        29.88S
$$
MNZ071>073-080-081-089-090-097-098-210200-
   Southwest Minnesota

CITY           SKY/WX    TMP DP  RH WIND       PRES   REMARKS
MONTEVIDEO     CLEAR     61  48  63 S5        29.88R
GRANITE FALLS  CLEAR     65  52  62 E3        29.89R
CANBY          CLEAR     60  52  74 W3        29.89R
MARSHALL       CLEAR     62  51  67 S3        29.89R
REDWOOD FALLS  CLEAR     65  48  54 E5        29.88R
OLIVIA         CLEAR     61  50  67 CALM      29.88R
PIPESTONE      CLEAR     61  50  67 CALM      29.90R
WORTHINGTON    CLEAR     61  49  64 S3        29.90R HAZE
JACKSON        PTCLDY    63  50  63 CALM      29.90R
TRACY          CLEAR     61  52  72 CALM      29.89R
SLAYTON        CLEAR     63  49  60 CALM      29.90R
$$
MNZ065>067-074>077-082>085-091>093-210200-
   South Central Minnesota

CITY           SKY/WX    TMP DP  RH WIND       PRES   REMARKS
MANKATO        CLEAR     64  53  67 CALM      29.88S
NEW ULM        CLEAR     61  48  63 CALM      29.88R
ST JAMES       CLEAR     59  54  82 CALM      29.89R
FAIRMONT       CLEAR     62  52  69 CALM      29.89R
GLENCOE        CLEAR     61  55  79 CALM      29.87S
FARIBAULT      CLEAR     57  55  94 CALM      29.88R
OWATONNA       CLEAR     61  54  77 CALM      29.88R
WASECA         CLEAR     55  52  88 CALM      29.89S FOG
ALBERT LEA     CLEAR     64  57  77 CALM      29.88S
$$
MNZ078>079-086>088-094>096-210200-
   Southeast Minnesota

CITY           SKY/WX    TMP DP  RH WIND       PRES   REMARKS
ROCHESTER      CLEAR     63  55  75 NW6       29.88S
RED WING       CLEAR     64  54  68 N3        29.85R
STANTON        CLEAR     62  56  80 CALM      29.86R
DODGE CENTER   CLEAR     63  54  72 CALM      29.89R
WINONA         CLEAR     66  59  77 CALM      29.86R
AUSTIN         CLEAR     66  54  63 N3        29.88R
PRESTON        CLEAR     66  57  73 CALM      29.88R
$$
ABBREVIATIONS USED IN REMARKS
   TC - TEMPERATURES IN CELSIUS
  WCI - WIND CHILL INDEX
   HX - HEAT INDEX
  VSB - VISIBILITY
$$




USA.gov is the U.S. government's official web portal to all federal, state and local government web resources and services.